• In Denmark
  • List of Countries
  • For 7 days
  • Water Temperature
  • Satellite Maps
  • Weather Map
  • Weather Widgets
  • user-avatar
    Login

    Hourly Weather Gaborone

    Today, 26 February, Monday

    Time Temperature Precipitation Wind Pressure Humidity
    00:00 +25°C° 0 mm 1 mps 675 mmHg 68%
    01:00 +24°C° 0 mm 1 mps 675 mmHg 69%
    02:00 +24°C° 0 mm 2 mps 675 mmHg 71%
    03:00 +23°C° 0.1 mm 2 mps 675 mmHg 72%
    04:00 +22°C° 0.1 mm 3 mps 675 mmHg 73%
    05:00 +21°C° 0.1 mm 4 mps 675 mmHg 75%
    06:00 +21°C° 0 mm 4 mps 676 mmHg 74%
    07:00 +21°C° 0 mm 5 mps 676 mmHg 74%
    08:00 +21°C° 0 mm 5 mps 677 mmHg 74%
    09:00 +21°C° 0 mm 4 mps 677 mmHg 72%
    10:00 +22°C° 0 mm 4 mps 677 mmHg 70%
    11:00 +22°C° 0 mm 4 mps 678 mmHg 67%
    12:00 +23°C° 0 mm 4 mps 678 mmHg 63%
    13:00 +26°C° 0 mm 4 mps 677 mmHg 58%
    14:00 +27°C° 0 mm 4 mps 677 mmHg 53%
    15:00 +27°C° 0 mm 4 mps 677 mmHg 55%
    16:00 +26°C° 0 mm 4 mps 677 mmHg 56%
    17:00 +26°C° 0 mm 4 mps 677 mmHg 57%
    18:00 +25°C° 0 mm 4 mps 677 mmHg 61%
    19:00 +23°C° 0 mm 4 mps 677 mmHg 64%
    20:00 +22°C° 0 mm 3 mps 677 mmHg 68%
    21:00 +21°C° 0 mm 3 mps 677 mmHg 71%
    22:00 +21°C° 0 mm 3 mps 677 mmHg 74%
    23:00 +20°C° 0 mm 2 mps 678 mmHg 78%

    Tomorrow, 27 February, Tuesday

    Time Temperature Precipitation Wind Pressure Humidity
    00:00 +20°C° 0 mm 2 mps 677 mmHg 79%
    01:00 +19°C° 0 mm 2 mps 677 mmHg 81%
    02:00 +19°C° 0 mm 2 mps 677 mmHg 82%
    03:00 +19°C° 0 mm 2 mps 677 mmHg 83%
    04:00 +19°C° 0 mm 2 mps 677 mmHg 84%
    05:00 +19°C° 0 mm 3 mps 677 mmHg 85%
    06:00 +19°C° 0 mm 3 mps 677 mmHg 83%
    07:00 +19°C° 0 mm 3 mps 677 mmHg 81%
    08:00 +20°C° 0 mm 3 mps 678 mmHg 79%
    09:00 +21°C° 0 mm 4 mps 678 mmHg 74%
    10:00 +22°C° 0 mm 4 mps 678 mmHg 69%
    11:00 +23°C° 0 mm 4 mps 678 mmHg 64%
    12:00 +25°C° 0 mm 4 mps 678 mmHg 61%
    13:00 +26°C° 0 mm 4 mps 678 mmHg 57%
    14:00 +27°C° 0 mm 4 mps 677 mmHg 53%
    15:00 +27°C° 0 mm 4 mps 677 mmHg 53%
    16:00 +27°C° 0 mm 4 mps 677 mmHg 53%
    17:00 +27°C° 0 mm 4 mps 677 mmHg 53%
    18:00 +26°C° 0 mm 3 mps 677 mmHg 59%
    19:00 +24°C° 0 mm 2 mps 677 mmHg 65%
    20:00 +23°C° 0 mm 2 mps 677 mmHg 71%
    21:00 +22°C° 0 mm 1 mps 677 mmHg 73%
    22:00 +22°C° 0 mm 1 mps 677 mmHg 75%
    23:00 +19°C° 0 mm 0 mps 677 mmHg 77%

    Day after tomorrow, 28 February, Wednesday

    Time Temperature Precipitation Wind Pressure Humidity
    00:00 +19°C° 0 mm 0 mps 677 mmHg 79%
    01:00 +19°C° 0 mm 0 mps 676 mmHg 80%
    02:00 +18°C° 0 mm 0 mps 676 mmHg 81%
    03:00 +18°C° 0 mm 0 mps 676 mmHg 82%
    04:00 +18°C° 0 mm 0 mps 676 mmHg 82%
    05:00 +18°C° 0 mm 0 mps 676 mmHg 83%
    06:00 +19°C° 0 mm 0 mps 676 mmHg 78%
    07:00 +20°C° 0 mm 0 mps 677 mmHg 73%
    08:00 +23°C° 0 mm 1 mps 677 mmHg 69%
    09:00 +25°C° 0 mm 1 mps 678 mmHg 62%
    10:00 +27°C° 0 mm 2 mps 678 mmHg 56%
    11:00 +29°C° 0 mm 3 mps 678 mmHg 50%
    12:00 +29°C° 0 mm 3 mps 678 mmHg 47%
    13:00 +30°C° 0 mm 4 mps 677 mmHg 45%
    14:00 +30°C° 0 mm 4 mps 676 mmHg 42%
    15:00 +30°C° 0 mm 4 mps 676 mmHg 41%
    16:00 +30°C° 0 mm 4 mps 676 mmHg 39%
    17:00 +32°C° 0 mm 4 mps 675 mmHg 38%
    18:00 +29°C° 0 mm 3 mps 675 mmHg 43%
    19:00 +27°C° 0 mm 2 mps 675 mmHg 48%
    20:00 +25°C° 0 mm 1 mps 675 mmHg 54%
    21:00 +25°C° 0 mm 1 mps 675 mmHg 57%
    22:00 +24°C° 0 mm 1 mps 676 mmHg 59%
    23:00 +24°C° 0 mm 1 mps 676 mmHg 62%

    1 March, Thursday

    Time Temperature Precipitation Wind Pressure Humidity
    00:00 +23°C° 0.1 mm 1 mps 676 mmHg 65%
    01:00 +23°C° 0.1 mm 1 mps 675 mmHg 67%
    02:00 +22°C° 0.1 mm 1 mps 675 mmHg 69%
    03:00 +22°C° 0.1 mm 1 mps 675 mmHg 72%
    04:00 +22°C° 0.1 mm 1 mps 675 mmHg 75%
    05:00 +21°C° 0.1 mm 1 mps 675 mmHg 78%
    06:00 +21°C° 0 mm 2 mps 676 mmHg 77%
    07:00 +23°C° 0 mm 2 mps 676 mmHg 75%
    08:00 +24°C° 0 mm 3 mps 677 mmHg 73%
    09:00 +26°C° 0.1 mm 3 mps 677 mmHg 65%
    10:00 +28°C° 0.1 mm 4 mps 678 mmHg 58%
    11:00 +29°C° 0.1 mm 5 mps 678 mmHg 50%
    12:00 +30°C° 0 mm 5 mps 678 mmHg 43%
    13:00 +32°C° 0 mm 5 mps 677 mmHg 35%
    14:00 +33°C° 0 mm 5 mps 676 mmHg 28%
    15:00 +33°C° 0 mm 5 mps 676 mmHg 28%
    16:00 +33°C° 0 mm 5 mps 675 mmHg 28%
    17:00 +32°C° 0 mm 4 mps 675 mmHg 29%
    18:00 +29°C° 0.1 mm 4 mps 675 mmHg 34%
    19:00 +28°C° 0.1 mm 3 mps 675 mmHg 38%
    20:00 +26°C° 0.1 mm 2 mps 675 mmHg 43%
    21:00 +25°C° 0 mm 2 mps 675 mmHg 46%
    22:00 +24°C° 0 mm 1 mps 675 mmHg 49%
    23:00 +22°C° 0 mm 0 mps 675 mmHg 52%

    2 March, Friday

    Time Temperature Precipitation Wind Pressure Humidity
    00:00 +23°C° 0 mm 1 mps 675 mmHg 53%
    01:00 +23°C° 0 mm 1 mps 675 mmHg 54%
    02:00 +23°C° 0 mm 1 mps 675 mmHg 55%
    03:00 +23°C° 0 mm 1 mps 675 mmHg 58%
    04:00 +22°C° 0 mm 1 mps 675 mmHg 61%
    05:00 +22°C° 0 mm 1 mps 675 mmHg 64%
    06:00 +21°C° 0 mm 2 mps 676 mmHg 66%
    07:00 +23°C° 0 mm 2 mps 676 mmHg 68%
    08:00 +22°C° 0 mm 3 mps 677 mmHg 69%
    09:00 +24°C° 0 mm 3 mps 677 mmHg 63%
    10:00 +26°C° 0 mm 4 mps 677 mmHg 57%
    11:00 +27°C° 0 mm 4 mps 677 mmHg 50%
    12:00 +28°C° 0 mm 4 mps 677 mmHg 44%
    13:00 +29°C° 0 mm 4 mps 677 mmHg 38%
    14:00 +30°C° 0 mm 4 mps 676 mmHg 32%
    15:00 +29°C° 0 mm 4 mps 676 mmHg 33%
    16:00 +28°C° 0 mm 4 mps 676 mmHg 34%
    17:00 +28°C° 0 mm 4 mps 675 mmHg 35%
    18:00 +26°C° 0 mm 3 mps 675 mmHg 39%
    19:00 +25°C° 0 mm 3 mps 675 mmHg 44%
    20:00 +24°C° 0 mm 3 mps 676 mmHg 48%
    21:00 +22°C° 0 mm 3 mps 676 mmHg 51%
    22:00 +21°C° 0 mm 3 mps 676 mmHg 53%
    23:00 +20°C° 0 mm 3 mps 676 mmHg 56%

    3 March, Saturday

    Time Temperature Precipitation Wind Pressure Humidity
    00:00 +20°C° 0 mm 3 mps 676 mmHg 57%
    01:00 +20°C° 0 mm 2 mps 676 mmHg 58%
    02:00 +19°C° 0 mm 2 mps 675 mmHg 59%
    03:00 +19°C° 0 mm 2 mps 675 mmHg 61%
    04:00 +19°C° 0 mm 2 mps 675 mmHg 64%
    05:00 +19°C° 0 mm 2 mps 675 mmHg 66%
    06:00 +19°C° 0 mm 3 mps 676 mmHg 68%
    07:00 +19°C° 0 mm 3 mps 676 mmHg 69%
    08:00 +19°C° 0 mm 3 mps 677 mmHg 71%
    09:00 +21°C° 0 mm 4 mps 677 mmHg 62%
    10:00 +23°C° 0 mm 4 mps 678 mmHg 54%
    11:00 +26°C° 0 mm 5 mps 678 mmHg 46%
    12:00 +27°C° 0 mm 5 mps 678 mmHg 42%
    13:00 +28°C° 0 mm 5 mps 677 mmHg 38%
    14:00 +29°C° 0 mm 5 mps 677 mmHg 35%
    15:00 +28°C° 0 mm 5 mps 676 mmHg 37%
    16:00 +27°C° 0 mm 5 mps 676 mmHg 40%
    17:00 +26°C° 0 mm 5 mps 676 mmHg 43%
    18:00 +23°C° 0 mm 4 mps 676 mmHg 50%
    19:00 +22°C° 0 mm 3 mps 676 mmHg 56%
    20:00 +20°C° 0 mm 2 mps 676 mmHg 63%
    21:00 +20°C° 0 mm 2 mps 676 mmHg 65%
    22:00 +20°C° 0 mm 2 mps 676 mmHg 68%
    23:00 +20°C° 0 mm 1 mps 676 mmHg 70%
    Show more